カタログに戻る

ATLAS 5 CENTAUR R/B

運用中HEO
NORAD 36869·ROCKET BODY·🇺🇸 United States

打ち上げ Aug 14, 2010 から Cape Canaveral Space Force Station

Loading…

次のパス (今後24時間)

TLE

最新Source: Space-Track

元期: Sep 14, 2026, 11:00 UTC

1 36869U 10039B   26257.45890831  .00010451  00000-0  77635-3 0  9997
2 36869  20.1230 240.7812 4433451 105.4301 306.5122  6.64692480294148

AllMySatでATLAS 5 CENTAUR R/Bをリアルタイム追跡

Download on the App Store